Starlink 11582

operational
NORAD ID: 62985 Int'l Des: 2025-031 Owner: SPXS Country: US Constellation: starlink
LEOCIRCULAR

Über Starlink 11582

Beschreibung wird geladen...

Live-Position

3D-Globus wird geladen...

Nächste Überflüge

Höhenverlauf

Altitude vs Time

uPlot chart will show altitude changes over time

Zweizeiliger Elementsatz

1 62985U 25031E 25308.63163305 .00272739 00000-0 20408-2 0 9992
2 62985 43.0000 35.3022 0002256 291.0107 69.0519 15.71063212 43071
Epoch: 4. Nov. 2025 • Age: 11 hours

Aktueller Status

Höhe 355.6 km
Geschwindigkeit 7.70 km/s
Subsatellitenpunkt -8.51°S, 47.89°W
Startdatum 11. Feb. 2025
Alter 0.7 years
Typ internet

Technische Details

Klassifizierung Payload
Masse 960.00 kg
Trockenmasse 910.00 kg
Gesamtmasse 960.00 kg
Länge 0.30 m
Durchmesser 4.10 m
Spannweite 29.00 m
Form Box + pan
Hersteller SPXS
Bus-Typ Starlink V2MD
Phasenstatus In Orbit
Besitzer/Staat SPXS/US

Große Konstellationen

Loading constellations...